User: anonymous   Login
Location: Theydon Bois
(51.6750°N, 0.1050°E)
Time: 00:48:49
(UTC+01:00)
Language:

Cosmos 1939 Rocket - Orbit

View from above orbital plane
View from above orbital plane
View from above satellite
View from above satellite

Ground track
Ground track

The orbit data is extracted from the following two-line orbital elements,

1 19046U 88032B   17292.55472140 +.00000135 +00000-0 +14639-4 0  9996
2 19046 097.5117 335.7843 0037344 271.3094 088.3853 15.02291367591020
Epoch (UTC): 19 October 2017 13:18:47
Eccentricity: 0.0037344
inclination: 97.5117°
perigee height: 534 km
apogee height: 586 km
right ascension of ascending node: 335.7843°
argument of perigee: 271.3094°
revolutions per day: 15.02291367
mean anomaly at epoch: 88.3853°
orbit number at epoch: 59102

The dashed part of the orbit path shows where the satellite is in the earth's shadow,  

DLR